Time,TemperatureF,DewpointF,PressureIn,WindDirection,WindDirectionDegrees,WindSpeedMPH,WindSpeedGustMPH,Humidity,HourlyPrecipIn,Conditions,Clouds,dailyrainin,SoftwareType,DateUTC
2013-08-01 00:03:00,85.0,-99.9,30.02,East,95,7.0,12.0,-999,-99.99,,,-99.99,,2013-08-01 04:03:00,
2013-08-01 00:43:00,85.0,-99.9,30.02,East,88,10.0,15.0,-999,-99.99,,,-99.99,,2013-08-01 04:43:00,
2013-08-01 01:03:00,85.0,-99.9,30.02,East,81,10.0,15.0,-999,-99.99,,,-99.99,,2013-08-01 05:03:00,
2013-08-01 01:13:00,84.0,-99.9,30.02,East,82,11.0,15.0,-999,-99.99,,,-99.99,,2013-08-01 05:13:00,
2013-08-01 01:33:00,84.0,-99.9,30.01,East,80,9.0,13.0,-999,-99.99,,,-99.99,,2013-08-01 05:33:00,
2013-08-01 01:43:00,84.0,-99.9,30.01,ENE,75,9.0,12.0,-999,-99.99,,,-99.99,,2013-08-01 05:43:00,
2013-08-01 02:02:00,84.0,-99.9,30.00,East,93,8.0,13.0,-999,-99.99,,,-99.99,,2013-08-01 06:02:00,
2013-08-01 02:33:00,84.0,-99.9,29.98,East,94,8.0,15.0,-999,-99.99,,,-99.99,,2013-08-01 06:33:00,
2013-08-01 02:43:00,84.0,-99.9,29.98,East,92,4.0,10.0,-999,-99.99,,,-99.99,,2013-08-01 06:43:00,
2013-08-01 02:53:00,84.0,-99.9,29.98,East,91,8.0,11.0,-999,-99.99,,,-99.99,,2013-08-01 06:53:00,
2013-08-01 03:03:00,83.0,-99.9,29.97,East,99,7.0,12.0,-999,-99.99,,,-99.99,,2013-08-01 07:03:00,
2013-08-01 03:33:00,83.0,-99.9,29.96,East,98,5.0,11.0,-999,-99.99,,,-99.99,,2013-08-01 07:33:00,
2013-08-01 03:43:00,83.0,-99.9,29.95,East,98,7.0,11.0,-999,-99.99,,,-99.99,,2013-08-01 07:43:00,
2013-08-01 03:56:00,83.0,-99.9,29.95,East,98,5.0,11.0,-999,-99.99,,,-99.99,,2013-08-01 07:56:00,
2013-08-01 04:09:00,83.0,-99.9,29.95,East,91,4.0,11.0,-999,-99.99,,,-99.99,,2013-08-01 08:09:00,
2013-08-01 04:42:00,83.0,-99.9,29.94,East,97,6.0,11.0,-999,-99.99,,,-99.99,,2013-08-01 08:42:00,
2013-08-01 04:48:00,83.0,-99.9,29.94,East,101,5.0,12.0,-999,-99.99,,,-99.99,,2013-08-01 08:48:00,
2013-08-01 05:12:00,83.0,-99.9,29.93,East,97,7.0,11.0,-999,-99.99,,,-99.99,,2013-08-01 09:12:00,
2013-08-01 05:50:00,83.0,-99.9,29.93,East,97,9.0,13.0,-999,-99.99,,,-99.99,,2013-08-01 09:50:00,
2013-08-01 07:02:00,83.0,-99.9,29.94,East,94,6.0,11.0,-999,-99.99,,,-99.99,,2013-08-01 11:02:00,
2013-08-01 07:51:00,83.0,-99.9,29.96,East,90,6.0,14.0,-999,-99.99,,,-99.99,,2013-08-01 11:51:00,
2013-08-01 08:35:00,83.0,-99.9,29.97,ESE,116,6.0,12.0,-999,-99.99,,,-99.99,,2013-08-01 12:35:00,
2013-08-01 08:54:00,85.0,-99.9,29.98,East,95,8.0,13.0,-999,-99.99,,,-99.99,,2013-08-01 12:54:00,
2013-08-01 09:24:00,85.0,-99.9,29.98,East,101,9.0,15.0,-999,-99.99,,,-99.99,,2013-08-01 13:24:00,
2013-08-01 09:37:00,85.0,-99.9,29.98,ESE,113,6.0,14.0,-999,-99.99,,,-99.99,,2013-08-01 13:37:00,
2013-08-01 09:57:00,84.0,-99.9,29.99,ESE,109,8.0,12.0,-999,-99.99,,,-99.99,,2013-08-01 13:57:00,
2013-08-01 10:22:00,86.0,-99.9,29.99,East,85,9.0,13.0,-999,-99.99,,,-99.99,,2013-08-01 14:22:00,
2013-08-01 11:19:00,86.0,-99.9,29.99,East,94,6.0,12.0,-999,-99.99,,,-99.99,,2013-08-01 15:19:00,
2013-08-01 11:34:00,86.0,-99.9,29.99,ESE,111,6.0,13.0,-999,-99.99,,,-99.99,,2013-08-01 15:34:00,
2013-08-01 11:40:00,86.0,-99.9,29.99,East,86,8.0,12.0,-999,-99.99,,,-99.99,,2013-08-01 15:40:00,
2013-08-01 11:55:00,86.0,-99.9,30.00,ESE,114,7.0,12.0,-999,-99.99,,,-99.99,,2013-08-01 15:55:00,
2013-08-01 12:03:00,86.0,-99.9,30.00,ESE,104,8.0,11.0,-999,-99.99,,,-99.99,,2013-08-01 16:03:00,
2013-08-01 12:34:00,86.0,-99.9,30.00,East,101,7.0,12.0,-999,-99.99,,,-99.99,,2013-08-01 16:34:00,
2013-08-01 12:45:00,87.0,-99.9,30.00,ESE,120,6.0,11.0,-999,-99.99,,,-99.99,,2013-08-01 16:45:00,
2013-08-01 12:53:00,86.0,-99.9,30.00,East,96,8.0,11.0,-999,-99.99,,,-99.99,,2013-08-01 16:53:00,
2013-08-01 13:00:00,86.0,-99.9,30.01,East,85,9.0,13.0,-999,-99.99,,,-99.99,,2013-08-01 17:00:00,
2013-08-01 14:02:00,86.0,-99.9,30.00,East,92,9.0,13.0,-999,-99.99,,,-99.99,,2013-08-01 18:02:00,
2013-08-01 14:19:00,87.0,-99.9,29.99,ESE,117,6.0,11.0,-999,-99.99,,,-99.99,,2013-08-01 18:19:00,
2013-08-01 14:36:00,86.0,-99.9,29.98,East,82,6.0,11.0,-999,-99.99,,,-99.99,,2013-08-01 18:36:00,
2013-08-01 14:56:00,85.0,-99.9,29.97,NE,41,7.0,9.0,-999,-99.99,,,-99.99,,2013-08-01 18:56:00,
2013-08-01 15:02:00,85.0,-99.9,29.97,NE,36,7.0,9.0,-999,-99.99,,,-99.99,,2013-08-01 19:02:00,
2013-08-01 15:18:00,85.0,-99.9,29.97,NE,51,7.0,9.0,-999,-99.99,,,-99.99,,2013-08-01 19:18:00,
2013-08-01 15:35:00,85.0,-99.9,29.96,NE,49,7.0,9.0,-999,-99.99,,,-99.99,,2013-08-01 19:35:00,
2013-08-01 16:11:00,85.0,-99.9,29.96,NE,48,7.0,10.0,-999,-99.99,,,-99.99,,2013-08-01 20:11:00,
2013-08-01 16:17:00,85.0,-99.9,29.96,NE,48,7.0,10.0,-999,-99.99,,,-99.99,,2013-08-01 20:17:00,
2013-08-01 16:52:00,86.0,-99.9,29.93,ESE,120,6.0,10.0,-999,-99.99,,,-99.99,,2013-08-01 20:52:00,
2013-08-01 17:54:00,85.0,-99.9,29.92,East,100,6.0,10.0,-999,-99.99,,,-99.99,,2013-08-01 21:54:00,
2013-08-01 18:36:00,85.0,-99.9,29.93,ESE,116,6.0,9.0,-999,-99.99,,,-99.99,,2013-08-01 22:36:00,
2013-08-01 19:01:00,85.0,-99.9,29.93,ESE,118,5.0,9.0,-999,-99.99,,,-99.99,,2013-08-01 23:01:00,
2013-08-01 19:33:00,84.0,-99.9,29.94,ESE,107,4.0,7.0,-999,-99.99,,,-99.99,,2013-08-01 23:33:00,
2013-08-01 19:53:00,84.0,-99.9,29.95,East,93,4.0,7.0,-999,-99.99,,,-99.99,,2013-08-01 23:53:00,
2013-08-01 20:03:00,84.0,-99.9,29.96,ESE,121,3.0,7.0,-999,-99.99,,,-99.99,,2013-08-02 00:03:00,
2013-08-01 20:42:00,84.0,-99.9,29.96,ESE,107,4.0,6.0,-999,-99.99,,,-99.99,,2013-08-02 00:42:00,
2013-08-01 20:53:00,84.0,-99.9,29.96,ESE,111,2.0,5.0,-999,-99.99,,,-99.99,,2013-08-02 00:53:00,
2013-08-01 21:02:00,84.0,-99.9,29.97,ENE,72,6.0,7.0,-999,-99.99,,,-99.99,,2013-08-02 01:02:00,
2013-08-01 21:07:00,84.0,-99.9,29.96,East,80,6.0,8.0,-999,-99.99,,,-99.99,,2013-08-02 01:07:00,
2013-08-01 21:18:00,84.0,-99.9,29.96,ENE,78,6.0,8.0,-999,-99.99,,,-99.99,,2013-08-02 01:18:00,
2013-08-01 21:50:00,83.0,-99.9,29.97,East,85,4.0,6.0,-999,-99.99,,,-99.99,,2013-08-02 01:50:00,
2013-08-01 22:02:00,83.0,-99.9,29.97,ENE,63,4.0,5.0,-999,-99.99,,,-99.99,,2013-08-02 02:02:00,
2013-08-01 22:09:00,84.0,-99.9,29.97,ENE,71,4.0,6.0,-999,-99.99,,,-99.99,,2013-08-02 02:09:00,
2013-08-01 22:45:00,83.0,-99.9,29.98,East,93,5.0,9.0,-999,-99.99,,,-99.99,,2013-08-02 02:45:00,
2013-08-01 23:53:00,83.0,-99.9,29.97,ENE,75,6.0,9.0,-999,-99.99,,,-99.99,,2013-08-02 03:53:00,